Jackson, TN

3:06 PM CDT on March 24, 2017 (GMT -0500)
McKellar-Sipes Regional

Weather History for KMKL - March, 2012

Change the Weather History Date:

Saturday, March 17, 2012

  Actual Average Record
Temperature  
Mean Temperature 67 °F 51 °F  
Max Temperature 80 °F 63 °F 86 °F (1982)
Min Temperature 53 °F 40 °F 25 °F (1962)
Degree Days  
Heating Degree Days 0 14  
Month to date heating degree days 140 277  
Since 1 July heating degree days 2596 3161  
Cooling Degree Days 2 0  
Month to date cooling degree days 15 0  
Year to date cooling degree days 15 1  
Growing Degree Days 16 (Base 50)    
Moisture  
Dew Point 58 °F    
Average Humidity 74    
Maximum Humidity 100    
Minimum Humidity 48    
Precipitation  
Precipitation 0.00 in 0.15 in 4.99 in (2002)
Month to date precipitation 3.16 2.48  
Year to date precipitation 8.70 10.72  
Snow  
Snow 0.00 in - - ()
Month to date snowfall 0.0  
Snow Depth 0.00 in    
Sea Level Pressure  
Sea Level Pressure 30.12 in    
Wind  
Wind Speed 5 mph (SSW)    
Max Wind Speed 16 mph    
Max Gust Speed 21 mph    
Visibility 8 miles    
Events Fog    
T = Trace of Precipitation, MM = Missing Value Source: NWS Daily Summary

Daily Weather History Graph

Daily Weather History Graph

Search for Another Location

Airport or City:

Trip Planner

Search our weather history database for the weather conditions in past years. The results will help you decide how hot, cold, wet, or windy it might be!

Date:

Astronomy

Mar. 17, 2012 Rise Set
Actual Time 7:02 AM CDT 7:05 PM CDT
Civil Twilight 6:37 AM CDT 7:30 PM CDT
Nautical Twilight 6:07 AM CDT 8:00 PM CDT
Astronomical Twilight 5:37 AM CDT 8:30 PM CDT
Moon 3:55 AM CDT (3/17) 2:37 PM CDT (3/17)
Length of Visible Light 12h 53m
Length of Day
12h 02m
Waning Crescent, 23% of the Moon is Illuminated
Mar 17
Waning Crescent
Mar 22
New
Mar 30
First Quarter
Apr 6
Full
Apr 13
Last Quarter

Hourly Weather History & Observations

Time (CDT) Temp. Dew Point Humidity Pressure Visibility Wind Dir Wind Speed Gust Speed Precip Events Conditions
12:53 AM 57.9 °F 55.9 °F 93% 30.11 in 10.0 mi South 4.6 mph - N/A   Clear
1:53 AM 55.9 °F 55.0 °F 97% 30.12 in 10.0 mi Calm Calm - N/A   Clear
2:49 AM 55.4 °F 53.6 °F 94% 30.11 in 1.8 mi Calm Calm - N/A   Clear
2:53 AM 55.0 °F 54.0 °F 96% 30.11 in 1.0 mi Calm Calm - N/A   Clear
3:15 AM 53.6 °F 53.6 °F 100% 30.11 in 3.0 mi Calm Calm - N/A   Clear
3:25 AM 55.4 °F 53.6 °F 94% 30.11 in 1.8 mi Calm Calm - N/A   Clear
3:37 AM 55.4 °F 53.6 °F 94% 30.11 in 0.5 mi Calm Calm - N/A Fog Fog
3:51 AM 53.6 °F 53.6 °F 100% 30.11 in 2.0 mi Calm Calm - N/A   Clear
3:53 AM 54.0 °F 53.1 °F 97% 30.10 in 4.0 mi Calm Calm - N/A   Clear
4:53 AM 54.0 °F 53.1 °F 97% 30.11 in 10.0 mi South 3.5 mph - N/A   Clear
5:53 AM 53.1 °F 52.0 °F 96% 30.13 in 10.0 mi Calm Calm - 0.01 in   Clear
6:53 AM 57.0 °F 55.0 °F 93% 30.14 in 10.0 mi South 4.6 mph - N/A   Clear
7:53 AM 63.0 °F 59.0 °F 87% 30.15 in 10.0 mi SSW 5.8 mph - N/A   Scattered Clouds
8:53 AM 68.0 °F 62.1 °F 81% 30.16 in 10.0 mi SSW 5.8 mph - N/A   Overcast
9:53 AM 70.0 °F 62.1 °F 76% 30.17 in 10.0 mi SSW 11.5 mph - N/A   Scattered Clouds
10:53 AM 73.0 °F 63.0 °F 71% 30.17 in 10.0 mi SW 9.2 mph - N/A   Mostly Cloudy
11:53 AM 77.0 °F 60.1 °F 56% 30.16 in 10.0 mi WSW 9.2 mph 19.6 mph N/A   Clear
12:53 PM 78.1 °F 57.9 °F 50% 30.14 in 10.0 mi SW 15.0 mph - N/A   Partly Cloudy
1:53 PM 77.0 °F 57.9 °F 52% 30.12 in 10.0 mi WSW 8.1 mph - N/A   Clear
2:53 PM 77.0 °F 59.0 °F 54% 30.09 in 10.0 mi SSW 12.7 mph - N/A   Scattered Clouds
3:53 PM 75.0 °F 60.1 °F 60% 30.08 in 10.0 mi SSW 6.9 mph - N/A   Mostly Cloudy
4:53 PM 75.0 °F 60.1 °F 60% 30.06 in 10.0 mi South 5.8 mph - N/A   Mostly Cloudy
5:53 PM 73.9 °F 61.0 °F 64% 30.06 in 10.0 mi SSW 4.6 mph - N/A   Mostly Cloudy
6:53 PM 73.0 °F 61.0 °F 66% 30.07 in 10.0 mi Calm Calm - N/A   Clear
7:53 PM 70.0 °F 61.0 °F 73% 30.08 in 10.0 mi Calm Calm - N/A   Scattered Clouds
8:53 PM 69.1 °F 61.0 °F 75% 30.10 in 10.0 mi SSE 3.5 mph - N/A   Scattered Clouds
9:53 PM 66.0 °F 61.0 °F 84% 30.12 in 10.0 mi SSW 3.5 mph - N/A   Partly Cloudy
10:53 PM 64.9 °F 60.1 °F 84% 30.12 in 10.0 mi SSW 3.5 mph - N/A   Clear
11:53 PM 60.1 °F 57.9 °F 93% 30.12 in 10.0 mi SSE 3.5 mph - N/A   Clear